Time,TemperatureF,DewpointF,PressureIn,WindDirection,WindDirectionDegrees,WindSpeedMPH,WindSpeedGustMPH,Humidity,HourlyPrecipIn,Conditions,Clouds,dailyrainin,SoftwareType,DateUTC
2013-10-14 00:12:00,41.0,34.0,30.37,NW,318,0.0,0.0,75,0.00,,,0.00,,2013-10-14 05:12:00,
2013-10-14 00:23:00,40.0,33.0,30.37,NW,318,0.0,0.0,75,0.00,,,0.00,,2013-10-14 05:23:00,
2013-10-14 00:43:00,40.0,33.0,30.37,NW,318,0.0,0.0,75,0.00,,,0.00,,2013-10-14 05:43:00,
2013-10-14 00:52:00,42.0,33.0,30.37,NW,318,0.0,0.0,71,0.00,,,0.00,,2013-10-14 05:52:00,
2013-10-14 02:22:00,42.0,34.0,30.38,NW,318,0.0,0.0,72,0.00,,,0.00,,2013-10-14 07:22:00,
2013-10-14 02:42:00,41.0,33.0,30.38,NW,318,0.0,0.0,73,0.00,,,0.00,,2013-10-14 07:42:00,
2013-10-14 02:52:00,41.0,34.0,30.39,NW,318,0.0,0.0,75,0.00,,,0.00,,2013-10-14 07:52:00,
2013-10-14 03:12:00,40.0,33.0,30.38,NW,318,0.0,0.0,75,0.00,,,0.00,,2013-10-14 08:12:00,
2013-10-14 03:22:00,40.0,33.0,30.38,NW,318,0.0,0.0,76,0.00,,,0.00,,2013-10-14 08:22:00,
2013-10-14 04:22:00,41.0,34.0,30.38,NNE,29,2.0,4.0,75,0.00,,,0.00,,2013-10-14 09:22:00,
2013-10-14 04:43:00,40.0,33.0,30.38,NE,34,2.0,4.0,77,0.00,,,0.00,,2013-10-14 09:43:00,
2013-10-14 04:53:00,39.0,33.0,30.38,NE,38,2.0,5.0,79,0.00,,,0.00,,2013-10-14 09:53:00,
2013-10-14 05:12:00,39.0,33.0,30.38,NE,42,1.0,3.0,80,0.00,,,0.00,,2013-10-14 10:12:00,
2013-10-14 05:23:00,39.0,33.0,30.37,NE,40,0.0,2.0,80,0.00,,,0.00,,2013-10-14 10:23:00,
2013-10-14 05:42:00,38.0,33.0,30.38,NE,40,0.0,0.0,82,0.00,,,0.00,,2013-10-14 10:42:00,
2013-10-14 05:53:00,38.0,33.0,30.38,NE,40,0.0,2.0,83,0.00,,,0.00,,2013-10-14 10:53:00,
2013-10-14 06:11:00,38.0,33.0,30.39,NE,40,0.0,0.0,83,0.00,,,0.00,,2013-10-14 11:11:00,
2013-10-14 06:22:00,37.0,33.0,30.38,NE,40,0.0,2.0,84,0.00,,,0.00,,2013-10-14 11:22:00,
2013-10-14 06:42:00,38.0,34.0,30.38,NE,40,0.0,2.0,85,0.00,,,0.00,,2013-10-14 11:42:00,
2013-10-14 06:52:00,37.0,33.0,30.39,NE,40,0.0,1.0,85,0.00,,,0.00,,2013-10-14 11:52:00,
2013-10-14 07:12:00,37.0,33.0,30.39,NE,40,0.0,0.0,85,0.00,,,0.00,,2013-10-14 12:12:00,
2013-10-14 07:22:00,36.0,33.0,30.38,NE,40,0.0,2.0,88,0.00,,,0.00,,2013-10-14 12:22:00,
2013-10-14 07:42:00,36.0,33.0,30.38,NE,40,0.0,0.0,88,0.00,,,0.00,,2013-10-14 12:42:00,
2013-10-14 07:52:00,36.0,33.0,30.38,NE,40,0.0,1.0,90,0.00,,,0.00,,2013-10-14 12:52:00,
2013-10-14 08:11:00,36.0,33.0,30.37,NE,40,0.0,1.0,90,0.00,,,0.00,,2013-10-14 13:11:00,
2013-10-14 08:21:00,38.0,35.0,30.37,NE,35,0.0,1.0,90,0.00,,,0.00,,2013-10-14 13:21:00,
2013-10-14 08:42:00,39.0,36.0,30.37,NE,35,0.0,1.0,89,0.00,,,0.00,,2013-10-14 13:42:00,
2013-10-14 08:52:00,40.0,36.0,30.37,NE,36,0.0,2.0,86,0.00,,,0.00,,2013-10-14 13:52:00,
2013-10-14 09:11:00,42.0,38.0,30.36,NE,36,0.0,0.0,86,0.00,,,0.00,,2013-10-14 14:11:00,
2013-10-14 09:22:00,43.0,38.0,30.36,SSE,149,0.0,1.0,84,0.00,,,0.00,,2013-10-14 14:22:00,
2013-10-14 09:42:00,44.0,39.0,30.37,SSE,150,0.0,1.0,82,0.00,,,0.00,,2013-10-14 14:42:00,
2013-10-14 09:52:00,45.0,40.0,30.36,SE,128,0.0,4.0,81,0.00,,,0.00,,2013-10-14 14:52:00,
2013-10-14 10:11:00,48.0,41.0,30.37,SSE,153,2.0,5.0,78,0.00,,,0.00,,2013-10-14 15:11:00,
2013-10-14 10:21:00,49.0,41.0,30.36,SSE,153,1.0,6.0,75,0.00,,,0.00,,2013-10-14 15:21:00,
2013-10-14 10:44:00,51.0,42.0,30.36,SE,138,2.0,4.0,71,0.00,,,0.00,,2013-10-14 15:44:00,
2013-10-14 10:54:00,53.0,43.0,30.36,SSE,149,2.0,8.0,68,0.00,,,0.00,,2013-10-14 15:54:00,
2013-10-14 11:13:00,54.0,43.0,30.35,ENE,74,1.0,7.0,65,0.00,,,0.00,,2013-10-14 16:13:00,
2013-10-14 11:23:00,55.0,42.0,30.35,SE,137,3.0,9.0,61,0.00,,,0.00,,2013-10-14 16:23:00,
2013-10-14 11:53:00,56.0,42.0,30.35,SSE,159,4.0,10.0,59,0.00,,,0.00,,2013-10-14 16:53:00,
2013-10-14 12:11:00,56.0,41.0,30.35,ESE,115,4.0,10.0,58,0.00,,,0.00,,2013-10-14 17:11:00,
2013-10-14 12:22:00,56.0,41.0,30.35,SSE,157,4.0,9.0,56,0.00,,,0.00,,2013-10-14 17:22:00,
2013-10-14 12:42:00,57.0,41.0,30.34,SSW,196,4.0,9.0,55,0.00,,,0.00,,2013-10-14 17:42:00,
2013-10-14 12:52:00,57.0,41.0,30.33,SSE,165,3.0,10.0,55,0.00,,,0.00,,2013-10-14 17:52:00,
2013-10-14 13:12:00,58.0,42.0,30.33,SE,146,2.0,9.0,56,0.00,,,0.00,,2013-10-14 18:12:00,
2013-10-14 13:22:00,58.0,40.0,30.32,ESE,111,4.0,8.0,52,0.00,,,0.00,,2013-10-14 18:22:00,
2013-10-14 13:42:00,58.0,41.0,30.29,SE,136,3.0,8.0,53,0.00,,,0.00,,2013-10-14 18:42:00,
2013-10-14 13:52:00,58.0,41.0,30.29,SE,128,3.0,10.0,54,0.00,,,0.00,,2013-10-14 18:52:00,
2013-10-14 14:11:00,59.0,41.0,30.27,SE,125,3.0,10.0,52,0.00,,,0.00,,2013-10-14 19:11:00,
2013-10-14 14:22:00,59.0,41.0,30.26,SE,132,3.0,10.0,52,0.00,,,0.00,,2013-10-14 19:22:00,
2013-10-14 14:42:00,59.0,41.0,30.24,SE,134,3.0,11.0,51,0.00,,,0.00,,2013-10-14 19:42:00,
2013-10-14 14:52:00,59.0,41.0,30.24,East,94,3.0,11.0,51,0.00,,,0.00,,2013-10-14 19:52:00,
2013-10-14 15:11:00,58.0,41.0,30.23,SE,142,2.0,8.0,53,0.00,,,0.00,,2013-10-14 20:11:00,
2013-10-14 15:22:00,57.0,41.0,30.23,ESE,121,2.0,9.0,54,0.00,,,0.00,,2013-10-14 20:22:00,
2013-10-14 15:43:00,57.0,41.0,30.22,East,84,1.0,8.0,54,0.00,,,0.00,,2013-10-14 20:43:00,
2013-10-14 15:52:00,57.0,40.0,30.20,ESE,112,2.0,7.0,53,0.00,,,0.00,,2013-10-14 20:52:00,
2013-10-14 16:22:00,57.0,40.0,30.19,SE,134,1.0,8.0,53,0.00,,,0.00,,2013-10-14 21:22:00,
2013-10-14 16:44:00,57.0,41.0,30.19,SE,129,0.0,8.0,54,0.00,,,0.00,,2013-10-14 21:44:00,
2013-10-14 16:55:00,56.0,41.0,30.19,SSE,148,2.0,8.0,56,0.00,,,0.00,,2013-10-14 21:55:00,
2013-10-14 17:13:00,56.0,42.0,30.18,South,183,1.0,10.0,59,0.00,,,0.00,,2013-10-14 22:13:00,
2013-10-14 17:24:00,56.0,42.0,30.18,NW,304,1.0,6.0,60,0.00,,,0.00,,2013-10-14 22:24:00,
2013-10-14 17:43:00,55.0,42.0,30.18,SE,128,1.0,4.0,62,0.00,,,0.00,,2013-10-14 22:43:00,
2013-10-14 17:54:00,55.0,43.0,30.18,SE,140,1.0,6.0,63,0.00,,,0.00,,2013-10-14 22:54:00,
2013-10-14 18:12:00,54.0,43.0,30.17,SE,128,1.0,3.0,65,0.00,,,0.00,,2013-10-14 23:12:00,
2013-10-14 18:22:00,54.0,43.0,30.17,SSE,161,1.0,7.0,66,0.00,,,0.00,,2013-10-14 23:22:00,
2013-10-14 18:42:00,53.0,43.0,30.16,ESE,119,0.0,14.0,68,0.00,,,0.00,,2013-10-14 23:42:00,
2013-10-14 18:53:00,53.0,43.0,30.16,South,182,1.0,6.0,70,0.00,,,0.00,,2013-10-14 23:53:00,
2013-10-14 19:12:00,52.0,43.0,30.17,SSE,168,0.0,3.0,71,0.00,,,0.00,,2013-10-15 00:12:00,
2013-10-14 19:22:00,52.0,44.0,30.16,ESE,103,0.0,3.0,73,0.00,,,0.00,,2013-10-15 00:22:00,
2013-10-14 19:42:00,51.0,43.0,30.17,SE,138,0.0,3.0,75,0.00,,,0.00,,2013-10-15 00:42:00,
2013-10-14 19:52:00,50.0,43.0,30.16,ESE,119,1.0,3.0,77,0.00,,,0.00,,2013-10-15 00:52:00,
2013-10-14 20:12:00,50.0,43.0,30.16,SE,128,1.0,4.0,78,0.00,,,0.00,,2013-10-15 01:12:00,
2013-10-14 20:22:00,50.0,43.0,30.16,SE,136,0.0,2.0,78,0.00,,,0.00,,2013-10-15 01:22:00,
2013-10-14 20:42:00,50.0,43.0,30.16,SSE,159,1.0,4.0,78,0.00,,,0.00,,2013-10-15 01:42:00,
2013-10-14 20:52:00,50.0,43.0,30.16,SSE,155,1.0,6.0,78,0.00,,,0.00,,2013-10-15 01:52:00,
2013-10-14 21:12:00,50.0,43.0,30.15,SE,134,1.0,10.0,77,0.00,,,0.00,,2013-10-15 02:12:00,
2013-10-14 21:22:00,50.0,43.0,30.16,SSE,161,3.0,7.0,77,0.00,,,0.00,,2013-10-15 02:22:00,
2013-10-14 21:42:00,50.0,43.0,30.15,ESE,114,1.0,7.0,78,0.00,,,0.00,,2013-10-15 02:42:00,
2013-10-14 21:52:00,49.0,42.0,30.14,ESE,123,1.0,9.0,78,0.00,,,0.00,,2013-10-15 02:52:00,
2013-10-14 22:12:00,49.0,43.0,30.14,SE,136,2.0,5.0,79,0.00,,,0.00,,2013-10-15 03:12:00,
2013-10-14 22:23:00,49.0,43.0,30.14,SSE,160,1.0,8.0,80,0.00,,,0.00,,2013-10-15 03:23:00,
2013-10-14 22:44:00,49.0,43.0,30.14,SE,136,1.0,6.0,80,0.00,,,0.00,,2013-10-15 03:44:00,
2013-10-14 22:55:00,48.0,42.0,30.13,SE,142,0.0,4.0,81,0.00,,,0.00,,2013-10-15 03:55:00,
2013-10-14 23:14:00,48.0,43.0,30.14,SE,140,1.0,4.0,83,0.00,,,0.00,,2013-10-15 04:14:00,
2013-10-14 23:24:00,48.0,43.0,30.12,ESE,120,1.0,7.0,83,0.00,,,0.00,,2013-10-15 04:24:00,
2013-10-14 23:43:00,47.0,41.0,30.10,SE,132,1.0,8.0,81,0.00,,,0.00,,2013-10-15 04:43:00,
2013-10-14 23:54:00,47.0,41.0,30.11,SE,130,1.0,10.0,81,0.00,,,0.00,,2013-10-15 04:54:00,